Wind_Speed
20 16 24 27 30 36 37 31 26 21 19 14 14 10 13 11 9 10 9 9 10 10 10 11 12 14 15 16 16 17 20 24 26 26 26 27 24 25 27 26 27 27 27 24 26
21 18 14 16 27 34 39 33 29 22 28 23 15 13 11 8 13 12 11 10 8 10 12 12 13 15 16 16 18 19 23 21 24 27 28 28 30 30 29 30 29 32 29 28 27
15 15 11 6 31 27 37 38 33 24 17 22 16 13 10 8 8 9 12 12 12 9 10 11 12 13 15 16 18 21 25 24 26 27 29 31 31 33 35 36 31 34 33 26 27
11 13 10 9 7 25 33 41 28 28 19 10 15 12 11 7 4 4 5 6 6 8 9 11 11 11 12 15 17 20 22 23 26 26 29 31 34 38 37 38 34 35 38 35 28
11 11 11 9 8 26 24 32 37 25 23 15 10 10 9 9 4 4 7 8 8 6 6 7 8 9 10 11 15 19 19 21 23 24 26 30 32 35 42 39 36 36 38 39 38
10 11 8 8 7 18 25 23 37 31 24 21 15 8 10 11 9 7 7 5 5 6 6 7 7 6 7 8 10 12 13 15 17 18 22 27 28 30 37 34 31 35 40 44 44
19 13 6 3 4 19 24 24 29 32 28 18 19 13 10 9 8 5 6 4 4 5 5 6 7 8 9 11 12 15 18 19 20 22 26 30 40 38 36 35 36 34 34 43 47
6 6 5 6 20 19 24 25 28 29 23 15 13 9 6 5 5 5 4 4 4 4 5 7 9 10 11 13 17 19 23 21 18 23 25 27 45 33 37 36 36 35 36 37 41
8 6 6 12 26 25 24 28 29 25 15 12 6 8 6 6 5 4 3 3 4 5 6 7 8 10 12 13 15 14 16 20 24 21 20 23 38 34 32 29 33 34 36 37 39
9 8 14 21 26 26 27 30 24 22 19 9 9 8 8 7 5 2 1 2 3 6 7 8 8 9 11 10 7 12 19 23 25 17 22 29 37 31 24 25 31 35 35 36 40
11 17 21 21 19 27 27 28 21 22 21 11 10 7 11 7 4 2 1 4 5 7 7 7 7 7 9 10 13 17 20 24 15 11 22 24 36 30 17 16 27 27 33 37 40
19 17 15 23 27 20 30 24 21 25 24 18 13 10 9 6 4 3 3 3 5 6 5 5 3 6 8 11 15 18 20 16 8 12 24 27 33 18 5 19 20 20 19 26 33
22 11 20 22 27 24 23 19 21 22 24 18 14 12 12 12 9 6 4 5 7 8 10 8 4 4 5 6 11 12 15 12 19 24 26 20 25 15 23 19 12 15 13 13 18
21 24 24 17 21 19 25 26 26 16 15 11 9 10 10 9 10 8 10 7 7 7 5 3 3 5 8 8 12 16 11 14 18 18 11 20 11 26 11 18 12 15 9 7 9
24 24 18 20 20 20 25 23 12 5 5 6 9 8 11 10 6 11 5 3 5 5 6 4 6 7 8 9 11 11 16 20 23 20 24 17 9 6 18 25 20 10 8 9 7
28 26 23 20 23 23 24 10 3 3 4 5 8 11 11 9 9 7 9 10 8 10 7 7 7 7 11 13 9 12 16 16 7 5 4 6 8 5 23 21 19 9 4 5 5
20 20 19 19 20 22 9 4 3 9 8 7 10 9 7 7 5 7 10 9 8 8 11 7 6 9 13 15 7 12 14 5 4 2 4 13 4 8 25 14 15 11 13 10 1
12 11 15 19 20 12 6 5 9 7 10 11 8 6 3 3 3 7 10 10 8 10 12 10 5 11 13 14 12 10 5 2 4 2 4 8 11 7 21 14 11 13 6 8 7
16 19 19 15 11 3 3 7 9 13 14 11 8 5 3 2 3 6 8 9 9 9 7 7 6 9 12 13 14 11 8 9 5 7 3 6 8 8 20 9 1 5 3 4 7
13 14 11 4 2 8 8 14 13 15 11 5 3 3 2 3 3 5 7 6 8 7 9 8 10 7 11 9 13 10 10 5 4 4 4 5 7 18 18 21 19 17 17 15 15
7 7 8 11 11 12 16 19 15 11 7 4 5 4 1 1 3 5 5 6 7 8 8 10 7 8 4 6 10 14 12 5 6 2 1 3 5 9 19 24 27 30 30 30 26
8 8 8 10 10 11 11 11 10 7 6 5 3 1 0 1 3 4 4 6 8 8 6 8 7 13 7 6 9 11 21 14 3 3 2 1 3 7 9 11 17 19 19 19 19
3 6 6 7 4 7 8 8 6 6 3 1 1 1 2 3 3 5 5 6 7 7 7 8 6 9 4 2 7 10 18 16 7 6 3 2 4 5 1 8 12 13 13 15 15
2 2 6 3 4 5 7 5 5 4 2 2 2 2 4 5 3 5 7 6 7 8 7 8 6 5 4 8 12 13 13 14 6 5 3 4 4 3 1 5 7 8 8 9 11
6 4 6 6 6 5 4 4 5 4 4 3 3 3 5 5 7 7 7 7 8 8 9 10 8 12 13 14 14 14 12 9 6 6 5 2 4 2 2 5 6 6 8 9 10
5 7 10 9 11 10 7 8 7 6 5 5 5 5 6 6 6 7 7 6 6 7 9 11 9 19 21 10 13 19 13 12 6 4 5 6 7 5 3 3 4 5 6 6 8
10 7 7 10 14 14 13 11 9 8 7 7 7 8 9 9 9 10 10 10 11 10 9 9 11 16 7 14 21 11 1 10 10 10 9 9 6 5 5 5 5 5 6 7 10
Wind_Direction
252 243 248 237 231 216 213 216 204 200 223 229 217 237 229 225 230 243 244 247 248 246 245 253 255 254 254 256 255 253 245 253 259 263 269 267 268 263 263 257 249 249 243 238 234
273 261 246 252 224 214 212 192 202 220 224 212 207 243 233 248 249 249 251 248 248 248 248 250 249 253 256 256 252 249 253 260 261 265 266 268 270 270 266 262 255 250 248 241 235
258 225 230 313 214 212 208 200 192 196 205 203 212 216 222 277 268 256 247 253 253 248 244 245 245 247 251 253 255 256 257 259 262 266 271 274 272 273 273 265 262 258 249 249 237
237 217 223 247 253 198 207 220 201 212 216 184 202 221 242 254 274 227 235 231 236 259 264 257 250 244 245 250 256 259 264 270 274 276 278 278 275 272 270 271 267 260 254 244 241
245 228 209 244 279 186 197 203 202 194 214 215 204 223 225 231 271 280 263 266 271 257 237 239 246 252 253 259 261 261 268 276 279 281 280 280 276 279 272 269 267 266 262 252 239
250 211 212 230 252 171 183 191 199 207 211 219 223 222 243 245 253 285 270 263 249 255 249 240 240 249 258 264 270 286 289 283 283 289 288 287 285 276 278 290 274 263 258 256 249
145 181 209 202 195 164 165 172 185 200 207 222 220 231 245 255 242 261 256 252 266 253 248 248 259 264 273 286 286 289 284 281 288 293 292 291 285 279 280 281 284 279 275 262 255
120 127 143 156 144 153 154 164 166 177 170 180 191 202 230 216 204 224 248 268 265 266 270 270 273 277 281 282 281 285 291 298 302 303 301 288 281 282 293 296 286 276 269 266 260
117 96 113 126 149 143 144 152 165 171 181 180 191 202 195 184 171 190 241 284 291 287 284 286 291 290 285 287 295 290 291 302 306 312 301 290 290 301 308 303 289 277 266 258 256
89 97 124 135 143 143 149 154 156 163 168 174 163 153 156 157 164 165 216 287 298 303 308 304 295 285 284 286 284 296 304 304 304 311 289 285 293 305 309 289 285 278 269 256 254
97 116 141 150 122 137 166 134 152 156 150 149 142 136 137 133 125 118 325 326 327 323 307 299 302 297 299 293 290 292 293 294 324 318 301 303 299 309 301 291 303 290 276 262 250
85 116 105 115 132 117 126 118 128 130 118 106 112 121 117 102 90 60 42 9 345 329 317 323 347 309 301 294 289 286 288 306 322 318 308 322 317 329 267 316 308 294 291 269 256
88 98 95 107 117 132 131 134 127 127 105 96 96 102 95 85 62 56 56 59 37 32 30 42 19 6 311 283 296 295 289 313 312 329 324 323 323 327 320 325 318 299 297 296 268
87 90 114 109 121 118 118 128 124 106 89 81 87 89 77 69 52 54 49 50 28 22 17 18 323 296 313 318 306 310 316 314 320 318 312 318 297 311 317 329 321 312 302 307 296
92 91 112 109 121 131 129 129 118 82 70 68 86 81 83 79 62 43 54 31 14 353 9 345 346 331 353 359 331 313 317 312 311 300 298 297 261 300 321 324 327 300 288 310 307
95 108 113 122 127 128 130 116 95 99 60 96 110 101 88 79 62 51 26 21 352 354 3 10 352 8 14 5 2 349 328 322 329 308 277 294 252 299 342 347 354 352 297 351 342
91 103 106 124 122 132 115 48 69 68 117 111 114 105 103 92 56 13 7 4 6 347 357 336 15 1 6 1 0 352 351 334 344 346 241 336 249 293 334 15 37 18 5 357 18
78 106 117 129 133 130 57 57 70 118 115 123 116 108 104 71 6 358 354 0 356 345 327 335 358 360 354 359 345 1 353 287 271 310 292 352 333 319 351 314 320 332 7 346 352
88 97 114 126 128 64 2 82 110 115 123 121 110 96 61 19 330 319 326 338 347 340 338 329 329 355 5 10 10 350 343 323 281 281 317 324 323 340 0 16 26 324 319 355 4
91 100 106 95 29 94 100 106 117 122 123 124 112 101 94 19 312 308 324 337 345 332 334 329 314 350 358 6 13 5 358 341 341 339 323 337 353 350 31 58 67 79 79 109 78
71 67 71 89 92 101 115 117 125 127 126 102 100 123 121 319 323 300 312 322 339 330 332 326 299 334 358 352 358 6 3 315 310 300 331 319 335 12 66 76 73 72 77 76 68
75 85 104 107 103 114 120 126 131 128 119 110 92 111 138 324 305 281 304 328 335 339 327 320 285 306 302 307 355 6 358 351 311 3 27 77 310 80 66 68 74 68 60 59 58
78 100 121 118 119 126 124 123 123 121 111 144 225 248 273 272 278 291 303 327 338 340 341 338 327 327 337 18 340 344 358 352 293 292 246 182 235 263 96 70 69 62 56 55 50
175 276 164 183 158 145 140 147 155 147 144 190 210 255 294 299 297 293 305 304 318 334 336 326 302 305 265 301 313 330 354 353 288 285 286 250 217 239 14 73 61 55 51 41 35
252 259 235 252 207 201 185 189 200 205 218 225 247 271 274 271 282 281 297 292 296 309 324 322 296 305 312 302 292 307 317 332 315 278 285 271 240 248 44 37 25 16 17 16 16
293 267 250 290 243 234 233 217 225 240 247 254 268 290 290 290 287 293 301 298 284 301 311 314 300 317 320 302 294 296 283 270 272 266 249 240 242 263 303 341 354 354 354 360 356
338 306 290 273 238 244 252 248 253 256 255 249 267 282 293 293 292 296 294 289 287 294 300 304 314 322 295 316 309 296 279 240 255 258 259 250 269 279 287 298 306 320 335 343 349
Height
3023 3025 3027 3034 3039 3045 3052 3058 3064 3066 3072 3074 3078 3082 3084 3085 3086 3088 3088 3090 3090 3090 3091 3093 3094 3094 3095 3097 3098 3100 3100 3098 3100 3102 3104 3106 3106 3106 3107 3109 3111 3112 3114 3116 3118
3018 3021 3024 3025 3034 3040 3045 3051 3060 3066 3068 3072 3075 3079 3082 3083 3084 3085 3087 3087 3088 3089 3089 3090 3091 3092 3093 3094 3095 3095 3094 3095 3097 3097 3099 3101 3101 3102 3104 3104 3106 3107 3109 3111 3113
3015 3018 3021 3022 3025 3035 3042 3048 3054 3060 3062 3068 3073 3076 3080 3081 3082 3083 3083 3084 3086 3087 3087 3088 3089 3089 3090 3091 3091 3092 3091 3092 3092 3093 3093 3095 3097 3096 3095 3096 3101 3101 3104 3105 3107
3012 3014 3018 3020 3021 3029 3037 3044 3051 3058 3059 3065 3070 3074 3078 3080 3083 3081 3082 3083 3083 3085 3086 3085 3086 3086 3087 3088 3088 3089 3089 3089 3088 3090 3089 3090 3090 3088 3088 3089 3092 3093 3094 3099 3102
3009 3011 3015 3018 3020 3024 3033 3041 3050 3054 3061 3064 3069 3073 3076 3079 3081 3081 3081 3082 3082 3083 3083 3083 3083 3084 3084 3085 3086 3086 3086 3086 3085 3085 3085 3084 3084 3083 3078 3081 3084 3087 3087 3089 3094
3007 3011 3015 3017 3019 3024 3031 3039 3048 3055 3061 3065 3070 3073 3076 3078 3080 3080 3080 3081 3081 3081 3081 3082 3081 3082 3083 3085 3085 3084 3084 3084 3084 3083 3081 3079 3078 3076 3073 3075 3076 3076 3076 3077 3079
3000 3012 3016 3017 3019 3024 3030 3039 3047 3055 3061 3065 3070 3074 3075 3078 3079 3080 3080 3081 3079 3080 3080 3081 3081 3082 3082 3083 3082 3081 3081 3081 3081 3080 3078 3075 3067 3068 3069 3070 3070 3071 3069 3070 3071
3011 3014 3016 3018 3021 3026 3031 3038 3046 3055 3060 3066 3070 3074 3075 3077 3078 3079 3079 3079 3079 3080 3079 3080 3079 3080 3081 3081 3079 3080 3078 3076 3076 3075 3074 3071 3057 3063 3062 3062 3061 3060 3061 3059 3060
3014 3015 3016 3019 3024 3029 3034 3040 3047 3056 3062 3067 3071 3075 3076 3078 3078 3079 3078 3079 3079 3079 3079 3078 3078 3079 3078 3077 3078 3077 3075 3073 3071 3071 3068 3066 3054 3056 3056 3053 3049 3048 3048 3048 3048
3018 3018 3021 3023 3024 3031 3037 3043 3049 3058 3064 3070 3073 3077 3077 3078 3079 3079 3079 3079 3079 3077 3078 3077 3076 3076 3075 3075 3077 3075 3072 3069 3066 3067 3063 3059 3050 3050 3051 3046 3041 3038 3036 3038 3039
3023 3025 3017 3025 3027 3035 3041 3047 3057 3064 3068 3071 3073 3075 3076 3079 3080 3079 3079 3078 3077 3077 3077 3075 3075 3075 3075 3074 3074 3072 3069 3065 3063 3061 3055 3055 3046 3043 3042 3039 3035 3030 3028 3027 3028
3029 3031 3029 3032 3036 3041 3047 3054 3059 3066 3068 3072 3075 3078 3079 3080 3080 3079 3079 3079 3077 3075 3074 3075 3074 3075 3073 3072 3070 3068 3065 3063 3061 3060 3054 3048 3039 3036 3035 3034 3029 3025 3021 3018 3018
3036 3038 3039 3041 3045 3049 3054 3059 3064 3068 3071 3078 3079 3081 3081 3082 3080 3080 3079 3078 3076 3075 3074 3074 3075 3073 3072 3070 3067 3065 3063 3061 3058 3054 3049 3044 3036 3035 3035 3031 3027 3023 3018 3014 3012
3043 3044 3046 3049 3054 3055 3060 3064 3069 3071 3075 3084 3084 3084 3084 3082 3083 3081 3079 3080 3078 3077 3076 3076 3075 3073 3070 3067 3067 3063 3061 3059 3056 3054 3050 3048 3038 3030 3031 3029 3025 3020 3017 3014 3012
3048 3051 3054 3055 3058 3063 3066 3069 3072 3074 3079 3088 3086 3086 3084 3085 3085 3082 3082 3081 3080 3079 3078 3076 3072 3070 3068 3067 3065 3062 3058 3056 3052 3052 3050 3045 3044 3031 3030 3025 3020 3016 3015 3014 3012
3054 3056 3059 3063 3065 3068 3071 3074 3076 3078 3085 3088 3087 3087 3087 3086 3085 3086 3084 3082 3080 3077 3075 3073 3071 3069 3069 3066 3063 3059 3055 3052 3050 3050 3050 3043 3042 3033 3029 3024 3018 3015 3015 3014 3013
3064 3063 3064 3068 3071 3073 3075 3076 3077 3077 3088 3090 3089 3089 3088 3088 3089 3087 3085 3083 3082 3079 3075 3073 3071 3070 3068 3066 3063 3060 3055 3053 3053 3050 3048 3042 3040 3035 3028 3023 3019 3017 3016 3014 3013
3072 3071 3071 3071 3073 3075 3076 3078 3077 3084 3085 3089 3090 3091 3090 3090 3090 3088 3086 3084 3083 3082 3078 3076 3072 3071 3069 3068 3064 3060 3059 3057 3059 3050 3046 3043 3041 3035 3029 3024 3021 3018 3017 3014 3014
3077 3076 3076 3078 3079 3079 3080 3079 3083 3086 3089 3090 3091 3092 3092 3092 3090 3088 3086 3085 3085 3084 3083 3079 3073 3071 3069 3067 3065 3060 3060 3057 3054 3050 3047 3044 3040 3035 3030 3023 3020 3018 3017 3016 3015
3082 3082 3082 3082 3082 3082 3083 3081 3086 3088 3091 3092 3092 3093 3093 3092 3091 3088 3086 3086 3085 3084 3083 3081 3075 3071 3071 3068 3067 3063 3062 3058 3055 3052 3049 3044 3042 3039 3033 3028 3024 3022 3019 3018 3018
3086 3086 3085 3084 3085 3085 3086 3086 3088 3090 3091 3093 3093 3093 3093 3092 3090 3088 3087 3087 3085 3084 3083 3081 3079 3074 3071 3069 3068 3065 3061 3058 3056 3055 3055 3054 3049 3043 3039 3034 3030 3028 3027 3026 3023
3090 3089 3089 3089 3091 3090 3090 3089 3090 3091 3092 3093 3093 3093 3092 3092 3090 3089 3087 3086 3085 3084 3083 3081 3078 3073 3071 3069 3068 3065 3061 3058 3058 3058 3055 3054 3054 3047 3045 3042 3037 3035 3034 3032 3031
3094 3092 3092 3092 3093 3093 3093 3092 3093 3093 3093 3094 3094 3094 3093 3092 3091 3088 3087 3087 3084 3083 3082 3081 3078 3074 3070 3071 3068 3064 3062 3059 3057 3058 3055 3055 3052 3048 3046 3044 3042 3039 3038 3037 3037
3097 3096 3095 3095 3095 3096 3094 3095 3094 3094 3094 3094 3094 3094 3093 3092 3090 3088 3087 3086 3084 3082 3081 3080 3077 3075 3073 3070 3068 3063 3061 3059 3057 3057 3054 3052 3050 3049 3047 3044 3042 3041 3041 3041 3040
3100 3100 3098 3098 3096 3096 3097 3096 3095 3095 3095 3094 3094 3093 3092 3091 3089 3088 3086 3085 3084 3082 3080 3079 3075 3072 3071 3068 3065 3063 3061 3059 3057 3055 3054 3053 3050 3049 3047 3045 3044 3043 3043 3042 3042
3100 3100 3099 3097 3097 3096 3096 3096 3095 3095 3095 3094 3094 3093 3091 3090 3089 3087 3086 3084 3083 3082 3080 3078 3075 3071 3066 3064 3063 3059 3059 3058 3056 3054 3052 3051 3049 3048 3046 3045 3045 3044 3044 3043 3042
3099 3097 3097 3095 3096 3096 3096 3096 3095 3094 3094 3093 3093 3092 3091 3090 3088 3087 3085 3083 3082 3081 3079 3078 3075 3072 3064 3062 3059 3056 3054 3054 3053 3052 3051 3049 3049 3047 3046 3045 3044 3043 3042 3041 3041